Flag for Germany Weather past 2 weeks in Achern, Baden-Württemberg, Germany

Now
61 °F

Sprinkles. Partly cloudy.


Feels Like: 61 °F
Forecast: 46 / 58 °F
Wind: 3 mph from Southwest

Location: Karlsruhe - Baden Wurttemberg

Current Time: Sep 21, 2014 at 6:40:41 AM

Latest Report: Sep 21, 2014 at 6:20 AM


Visibility: N/A

Pressure: 29.98 "Hg

Humidity: 94%

Dew point: 59 °F

Location of AchernLocation

Historic Weather in Achern — Graph

°F

Achern temperature yesterday

Maximum temperature yesterday: 77 °F (at 3:20 PM)
Minimum temperature yesterday: 59 °F (at 4:50 AM)
Average temperature yesterday: 67 °F

Past Weeks' High & Low Weather Summary

 TemperatureHumidityPressure
High81 °F (Sep 6, 5:20 PM)94% (Sep 6, 5:50 AM)30.18 "Hg (Sep 6, 5:50 AM)
Low50 °F (Sep 11, 4:50 AM)42% (Sep 6, 5:20 PM)29.83 "Hg (Sep 17, 4:20 PM)
Average64 °F77%29.99 "Hg
* Reported Sep 6 5:20 AM — Sep 21 5:20 AM, Achern, Weather by CustomWeather, © 2014

Note: Actual official high and low records may vary slightly from our data, if they occured in-between our weather recording intervals... More about our weather records

Advertising

Achern weather history for previous 24 hours

 ConditionsComfort  
Time TempWeatherWind HumidityBarometerVisibility
5:20 AM
Sep 21
61 °FRain showers. Partly cloudy.3 mph94%29.98 "Hg5 mi
4:50 AM61 °FPassing clouds.1 mph88%29.98 "HgN/A
10:20 PM
Sep 20
64 °FThundershowers. Clear.2 mph88%29.98 "HgN/A
9:50 PM64 °FThundershowers. Clear.2 mph83%29.98 "HgN/A
9:20 PM64 °FThundershowers. Passing clouds.2 mph83%29.98 "HgN/A
8:50 PM68 °FThundershowers. Passing clouds.3 mph78%29.98 "HgN/A
8:20 PM68 °FThundershowers. Scattered clouds.5 mph78%29.98 "HgN/A
7:50 PM70 °FScattered clouds.3 mph73%29.95 "Hg5 mi
3:20 PM77 °FScattered clouds.7 mph54%29.98 "HgN/A
2:50 PM75 °FPassing clouds.5 mph57%29.98 "HgN/A
2:20 PM75 °FScattered clouds.8 mph57%29.98 "HgN/A
1:50 PM75 °FScattered clouds.6 mph57%29.98 "HgN/A
1:20 PM72 °FPassing clouds.8 mph65%30.01 "HgN/A
12:50 PM73 °FPassing clouds.8 mph65%30.01 "HgN/A
12:20 PM72 °FPassing clouds.8 mph65%30.01 "HgN/A
11:50 AM72 °FPassing clouds.7 mph69%30.01 "HgN/A
11:20 AM70 °FSunny.8 mph73%30.01 "Hg10 mi
10:50 AM70 °FPassing clouds.8 mph73%30.01 "HgN/A
10:20 AM68 °FSunny.9 mph78%30.01 "Hg10 mi
9:50 AM66 °FPassing clouds.8 mph88%29.98 "HgN/A
9:20 AM63 °FSunny.5 mph94%29.98 "Hg10 mi
8:50 AM63 °FPassing clouds.3 mph88%29.98 "HgN/A
8:20 AM61 °FPassing clouds.3 mph94%29.98 "HgN/A
7:50 AM61 °FClear.5 mph94%29.98 "Hg10 mi
7:20 AM61 °FClear.3 mph94%29.98 "Hg10 mi
6:50 AM59 °FClear.5 mph94%29.95 "Hg10 mi
6:20 AM61 °FClear.5 mph88%29.95 "Hg10 mi
Weather by CustomWeather, © 2014

See weather overviewHow to use our weather pages